Wind_Speed
28 29 28 27 28 29 30 30 31 31 31 32 32 32 32 31 31 31 32 33 33 33 33 33 33 34 34 35 35 37 37 37 37 38 37 37 38 38 38 39 39 40 40 40
30 29 27 28 28 30 30 31 31 32 31 32 32 32 32 32 31 31 32 32 32 32 32 32 33 33 33 34 35 36 36 37 37 38 38 38 38 39 39 38 39 40 40 40
30 29 28 29 29 30 31 31 31 32 32 33 33 32 31 31 32 32 31 31 32 32 33 33 32 32 32 34 34 35 36 36 37 38 38 38 38 38 39 39 39 40 40 41
30 30 29 29 29 29 30 30 31 32 33 33 33 34 30 30 31 31 31 31 31 31 32 33 32 32 32 32 33 34 35 36 37 38 38 38 38 38 39 39 40 39 39 40
30 30 30 29 28 29 29 29 30 31 32 32 32 34 31 30 29 30 30 30 30 31 32 32 32 32 32 32 33 33 34 35 36 36 37 37 38 38 39 39 40 39 39 39
30 31 31 29 29 29 29 28 29 30 31 33 30 31 31 29 28 29 30 29 29 30 31 31 31 31 31 32 32 32 33 34 35 36 36 37 37 38 38 38 38 39 40 39
31 31 30 29 29 29 28 28 29 29 30 31 29 30 30 28 27 27 28 29 29 29 30 31 31 31 31 31 31 32 33 34 35 36 36 36 37 37 38 38 38 39 39 39
29 29 29 29 29 28 28 29 29 30 31 30 29 30 28 27 26 26 27 28 28 29 30 30 30 30 30 30 31 32 33 34 35 36 37 37 37 38 38 38 38 38 39 40
28 28 27 27 28 28 28 29 29 30 31 30 30 29 28 27 27 26 26 27 28 29 29 29 30 30 30 30 31 32 32 33 34 35 36 37 38 38 38 39 39 38 38 38
29 30 28 27 28 28 28 27 28 28 29 30 30 29 28 27 28 28 28 28 28 28 28 29 29 30 30 31 31 32 32 32 33 34 34 35 36 37 37 38 38 38 38 38
30 31 30 29 28 28 28 28 28 28 29 30 30 29 27 28 27 28 28 28 28 28 29 29 29 30 30 31 31 32 32 32 33 33 34 34 35 35 36 37 38 38 39 39
30 31 30 29 29 29 29 28 28 29 29 30 30 29 26 27 27 28 28 28 29 30 30 30 30 30 30 30 31 31 32 32 33 33 33 34 34 34 35 35 36 37 38 39
30 30 31 30 30 30 29 29 29 30 31 31 31 30 27 27 27 28 29 29 29 30 30 30 30 30 30 30 31 32 32 33 33 33 33 34 34 34 35 35 35 36 36 37
31 32 32 30 29 30 30 30 30 31 32 31 31 29 29 29 29 29 29 30 30 30 30 30 30 30 30 31 31 31 32 32 33 33 33 34 34 33 34 35 35 35 35 35
31 33 33 32 31 31 31 31 31 31 31 32 30 29 28 29 29 29 30 30 30 30 30 30 31 31 31 31 31 31 32 32 33 33 34 34 34 34 34 34 35 35 35 36
29 31 33 33 33 33 33 33 33 32 31 32 31 29 29 31 31 29 30 30 30 31 31 31 31 31 31 31 32 32 32 33 33 34 34 34 34 34 34 34 34 35 35 35
29 30 30 31 31 33 34 31 32 32 31 32 32 30 30 31 31 31 30 31 31 30 31 31 31 30 31 31 31 32 32 32 32 33 33 33 33 33 33 33 33 34 35 35
28 29 30 30 30 31 30 30 30 30 30 31 32 31 31 32 32 32 31 31 31 31 31 31 31 31 31 31 31 31 31 31 32 32 32 31 32 32 32 32 32 33 34 34
28 28 29 29 30 29 27 27 28 28 28 29 30 30 31 32 32 32 32 31 31 32 32 32 31 31 30 30 30 31 31 31 31 32 32 31 32 32 32 32 33 33 33 34
26 27 28 28 29 28 26 27 27 28 28 28 29 30 30 30 31 31 31 31 31 32 31 31 31 31 31 31 31 31 31 31 32 32 32 32 32 32 32 32 33 33 34 35
26 26 27 28 28 28 26 26 27 29 28 27 28 29 29 30 30 29 29 30 31 31 31 31 32 31 31 31 31 31 31 31 31 31 31 31 32 32 32 32 33 34 35 35
24 25 26 27 28 27 26 27 28 28 28 28 28 28 29 29 29 29 29 30 30 30 31 31 31 31 31 31 31 30 30 30 30 31 31 31 31 31 31 32 33 33 34 34
24 24 24 25 25 25 26 27 28 28 28 28 29 28 28 28 29 29 29 29 30 30 30 30 30 31 31 31 31 30 30 30 30 31 30 31 31 31 31 32 32 32 32 32
24 24 25 24 23 25 26 27 26 27 28 27 28 28 28 28 28 29 29 29 29 29 29 29 30 30 30 31 31 31 30 31 31 31 31 31 31 31 31 31 31 31 32 32
23 24 25 24 23 24 24 26 26 27 27 27 27 27 27 27 27 27 27 28 28 29 29 29 29 29 29 30 30 30 31 31 31 30 30 30 30 30 30 31 31 31 31 31
22 24 25 25 24 25 24 24 25 26 27 27 27 27 27 27 26 26 25 26 27 28 28 28 28 27 27 28 28 29 30 30 30 30 29 30 30 30 29 29 28 28 29 29
Wind_Direction
261 259 259 263 263 264 266 266 266 266 266 266 264 262 260 258 258 258 257 257 258 258 259 260 261 261 262 261 260 259 257 257 258 259 260 262 264 265 267 266 265 265 265 265
259 257 259 262 262 263 265 267 267 267 266 266 265 263 261 258 258 259 259 259 259 259 259 260 261 262 263 262 261 260 258 258 258 259 260 262 264 265 266 266 264 266 267 267
260 257 257 261 262 263 264 265 266 267 267 266 265 263 262 261 260 260 260 260 260 261 262 262 263 263 264 263 261 260 259 259 259 261 262 263 265 266 267 267 267 267 267 268
259 256 257 260 261 263 264 265 266 267 266 266 266 265 260 262 261 261 261 262 261 262 263 264 264 264 264 264 262 260 260 260 260 261 263 264 264 266 267 268 268 268 268 269
258 256 258 260 260 262 264 265 266 266 266 265 265 266 263 264 263 261 261 261 262 263 264 265 265 265 265 264 263 262 261 261 261 262 263 264 264 266 267 267 267 268 269 270
258 257 258 259 259 261 263 264 264 265 266 265 265 267 267 267 267 265 263 264 264 264 264 265 265 266 266 265 264 263 263 262 263 264 265 265 265 266 266 266 267 269 270 270
257 256 257 258 258 259 260 261 262 264 265 267 267 267 269 268 269 267 265 264 264 264 265 266 266 266 266 266 264 264 264 264 264 265 266 265 266 267 267 267 267 269 269 270
261 258 256 257 257 256 258 258 260 264 268 270 268 268 269 269 268 268 266 265 264 265 265 265 266 265 265 265 265 265 265 266 266 266 266 266 266 267 267 268 269 270 271 272
262 262 260 257 255 254 255 255 258 262 265 268 268 269 269 268 269 269 267 267 265 266 267 266 266 266 266 266 267 267 268 268 267 267 266 266 267 268 269 269 270 271 271 272
260 263 260 256 254 253 254 255 257 259 263 266 267 269 271 269 268 268 269 268 268 267 267 267 267 267 267 267 267 268 269 269 268 268 268 268 268 269 269 270 270 271 272 273
259 261 259 255 253 251 252 253 256 259 261 265 268 269 271 271 271 270 270 270 269 269 267 267 267 268 269 269 269 268 268 269 269 269 268 268 269 271 271 271 271 271 272 273
258 260 259 257 255 252 252 254 255 258 261 265 268 269 273 272 270 269 269 269 269 268 268 268 267 268 269 270 270 268 268 268 269 269 269 269 270 271 272 272 272 272 273 273
256 257 259 258 254 252 253 254 255 257 260 263 267 270 272 271 269 269 268 268 267 267 268 268 268 268 269 270 271 270 269 269 269 270 270 270 271 272 273 272 273 273 274 274
256 256 257 259 257 256 255 255 255 257 260 264 267 269 269 271 270 269 269 268 268 267 267 268 268 268 269 270 270 271 272 271 271 270 271 271 272 273 273 273 273 273 274 275
258 257 256 256 256 255 254 254 255 257 261 264 266 268 270 269 269 269 269 269 269 268 268 268 267 268 269 269 270 271 271 272 272 271 272 272 272 272 273 273 273 273 275 276
258 258 256 255 255 256 255 255 256 258 260 263 265 268 270 271 271 270 270 269 268 267 267 267 267 268 269 269 271 271 271 271 272 271 272 272 272 272 274 274 275 275 276 277
260 260 259 257 256 257 256 256 258 259 261 263 265 268 269 271 272 271 270 269 269 268 267 266 267 268 268 269 270 271 272 273 273 273 273 272 272 272 274 275 275 275 277 278
262 261 261 261 260 261 259 258 260 262 263 266 268 270 270 271 271 271 270 270 268 268 267 266 267 268 268 269 270 271 272 273 273 273 273 273 272 273 274 275 276 277 278 280
260 260 262 262 262 262 261 260 262 264 265 267 270 272 272 272 271 269 269 270 270 269 267 266 266 268 268 269 269 270 271 272 272 273 273 273 273 274 275 275 275 277 279 281
259 259 260 262 264 265 265 263 264 267 268 270 271 271 272 272 271 269 270 270 270 268 268 266 265 266 267 269 270 271 271 271 272 273 273 273 274 274 275 276 276 277 279 281
261 260 261 262 266 268 268 268 269 270 272 272 272 272 273 273 274 272 271 272 272 270 269 267 265 266 268 269 270 272 272 271 272 272 273 274 274 275 276 277 277 278 280 282
261 261 261 263 266 270 271 270 270 272 272 271 271 271 272 274 273 272 273 273 273 271 270 269 267 267 269 270 271 271 271 271 272 273 273 274 276 276 276 278 279 280 281 282
260 260 261 263 267 268 270 272 273 273 274 273 271 271 273 274 273 273 272 272 272 271 271 270 269 268 269 270 271 271 271 272 272 272 274 275 276 278 278 279 280 280 280 280
259 260 260 262 265 265 268 270 272 272 273 273 273 273 274 273 272 272 272 272 271 270 269 270 270 270 270 271 271 271 272 272 273 273 275 277 278 278 279 280 281 279 279 280
261 261 261 262 264 266 268 269 270 271 273 274 275 274 274 274 273 273 273 273 271 270 269 271 271 270 270 271 271 271 272 273 273 275 277 278 279 279 280 280 280 280 279 281
261 262 262 265 267 268 269 270 271 272 274 275 276 276 276 275 274 274 273 273 273 272 271 271 271 270 270 271 271 272 272 273 274 276 278 279 280 280 280 279 279 279 280 281
Height
5676 5678 5679 5681 5681 5682 5683 5683 5684 5685 5685 5685 5686 5687 5689 5690 5691 5692 5694 5695 5697 5698 5700 5701 5701 5702 5703 5703 5705 5706 5708 5710 5712 5714 5716 5717 5718 5720 5720 5721 5722 5722 5723 5723
5669 5671 5674 5673 5674 5675 5675 5676 5677 5677 5677 5677 5678 5679 5680 5682 5683 5684 5686 5688 5689 5690 5691 5693 5694 5694 5695 5695 5697 5698 5700 5701 5703 5705 5707 5708 5709 5711 5711 5711 5712 5712 5713 5713
5661 5664 5665 5665 5666 5667 5668 5669 5669 5669 5669 5669 5669 5670 5673 5674 5675 5677 5678 5680 5681 5682 5684 5685 5686 5686 5687 5687 5688 5690 5691 5693 5694 5696 5697 5699 5700 5701 5703 5703 5703 5703 5703 5703
5652 5655 5656 5657 5659 5659 5660 5661 5661 5661 5661 5661 5662 5661 5666 5667 5668 5669 5671 5673 5674 5675 5675 5676 5678 5678 5679 5679 5680 5681 5682 5684 5685 5687 5688 5690 5691 5692 5693 5693 5693 5693 5693 5693
5645 5647 5648 5649 5652 5652 5653 5654 5654 5653 5653 5653 5655 5653 5658 5659 5661 5662 5664 5665 5666 5667 5668 5669 5670 5670 5671 5671 5672 5673 5674 5675 5677 5678 5679 5680 5682 5682 5683 5683 5684 5684 5683 5683
5637 5638 5640 5642 5644 5644 5645 5646 5646 5645 5645 5645 5648 5648 5650 5652 5654 5655 5656 5657 5658 5659 5660 5661 5662 5662 5663 5663 5664 5665 5666 5667 5668 5669 5670 5671 5672 5673 5673 5674 5674 5674 5674 5673
5628 5630 5632 5633 5635 5636 5637 5638 5638 5637 5637 5639 5642 5641 5644 5646 5647 5648 5649 5650 5650 5651 5652 5653 5654 5654 5655 5655 5656 5657 5657 5658 5659 5660 5661 5662 5662 5663 5664 5664 5664 5664 5664 5664
5619 5622 5624 5625 5627 5628 5629 5630 5631 5631 5631 5633 5634 5634 5638 5639 5640 5640 5641 5642 5642 5643 5644 5645 5645 5646 5647 5647 5648 5649 5649 5650 5650 5651 5652 5652 5652 5653 5653 5654 5654 5654 5654 5654
5611 5613 5615 5617 5618 5620 5621 5622 5624 5624 5624 5625 5626 5628 5630 5631 5632 5633 5634 5634 5634 5635 5636 5637 5637 5638 5638 5639 5640 5640 5641 5641 5641 5641 5642 5642 5643 5643 5643 5643 5643 5644 5644 5644
5603 5604 5607 5608 5610 5611 5614 5615 5616 5616 5616 5617 5619 5621 5624 5624 5625 5626 5626 5626 5627 5627 5628 5628 5629 5629 5630 5631 5631 5631 5632 5632 5632 5632 5633 5633 5633 5633 5633 5633 5633 5633 5633 5633
5596 5596 5599 5600 5602 5604 5606 5608 5608 5609 5610 5611 5612 5616 5617 5617 5617 5618 5618 5618 5619 5620 5620 5620 5620 5621 5621 5622 5622 5622 5623 5623 5623 5623 5623 5623 5623 5623 5623 5623 5623 5623 5623 5623
5588 5589 5590 5593 5595 5596 5598 5600 5601 5603 5603 5604 5605 5610 5610 5610 5609 5609 5610 5610 5611 5611 5612 5612 5612 5613 5613 5613 5613 5613 5614 5614 5614 5614 5614 5614 5614 5614 5614 5613 5613 5612 5612 5612
5580 5581 5583 5585 5589 5589 5590 5592 5593 5594 5595 5596 5597 5603 5603 5602 5602 5602 5602 5602 5602 5603 5603 5604 5604 5604 5604 5605 5604 5604 5605 5605 5605 5605 5605 5605 5605 5605 5604 5604 5603 5602 5602 5602
5572 5573 5576 5578 5579 5580 5582 5584 5585 5586 5587 5588 5591 5593 5595 5594 5594 5594 5594 5594 5594 5594 5595 5595 5596 5596 5596 5596 5596 5596 5595 5595 5595 5595 5595 5595 5595 5595 5594 5594 5593 5593 5592 5592
5564 5566 5567 5569 5571 5572 5573 5576 5577 5578 5580 5581 5583 5584 5586 5585 5585 5586 5585 5585 5585 5586 5586 5587 5587 5587 5587 5587 5587 5587 5587 5586 5586 5586 5586 5586 5586 5585 5585 5584 5584 5583 5583 5582
5556 5557 5559 5561 5563 5563 5565 5568 5569 5570 5572 5573 5574 5576 5577 5576 5576 5577 5577 5576 5576 5577 5577 5578 5578 5578 5578 5578 5578 5577 5577 5577 5577 5576 5576 5576 5576 5576 5575 5575 5574 5573 5573 5572
5549 5550 5551 5553 5555 5554 5556 5561 5562 5563 5564 5565 5565 5568 5568 5568 5567 5568 5568 5567 5568 5568 5568 5569 5569 5569 5569 5569 5568 5568 5568 5567 5567 5567 5567 5566 5566 5566 5565 5565 5564 5564 5563 5562
5541 5542 5543 5544 5546 5546 5553 5553 5554 5554 5556 5556 5557 5558 5559 5559 5558 5558 5558 5558 5558 5559 5559 5559 5560 5560 5560 5560 5560 5559 5559 5559 5558 5558 5558 5557 5557 5557 5556 5555 5555 5554 5553 5552
5534 5535 5536 5537 5537 5539 5543 5545 5545 5546 5547 5548 5549 5549 5549 5549 5549 5549 5549 5549 5549 5549 5549 5550 5550 5551 5551 5550 5550 5550 5550 5550 5549 5549 5548 5548 5547 5547 5546 5546 5545 5544 5543 5542
5527 5528 5529 5530 5530 5531 5537 5538 5537 5538 5539 5540 5540 5540 5540 5540 5540 5541 5540 5540 5540 5539 5540 5540 5541 5541 5541 5541 5541 5541 5541 5540 5540 5539 5539 5538 5538 5538 5537 5536 5536 5534 5533 5532
5521 5521 5522 5523 5522 5524 5529 5530 5530 5531 5532 5532 5531 5531 5531 5530 5531 5531 5530 5530 5530 5530 5530 5530 5531 5532 5532 5532 5532 5532 5532 5531 5531 5530 5530 5529 5528 5528 5527 5527 5526 5525 5524 5522
5513 5514 5515 5516 5516 5520 5521 5521 5522 5522 5522 5522 5522 5522 5521 5521 5521 5521 5521 5521 5521 5521 5521 5521 5521 5522 5522 5522 5523 5523 5523 5522 5521 5521 5521 5520 5519 5519 5518 5517 5516 5515 5513 5512
5506 5508 5508 5510 5512 5512 5512 5513 5513 5513 5513 5512 5513 5513 5512 5512 5512 5512 5512 5512 5512 5512 5512 5512 5512 5513 5513 5513 5513 5514 5514 5513 5513 5512 5512 5511 5510 5510 5509 5508 5506 5505 5503 5502
5500 5500 5501 5502 5504 5505 5504 5504 5504 5504 5504 5504 5504 5504 5504 5503 5504 5504 5504 5504 5503 5503 5503 5503 5503 5504 5504 5504 5504 5504 5504 5504 5503 5503 5503 5502 5501 5501 5499 5498 5497 5495 5494 5493
5493 5493 5493 5495 5497 5497 5497 5497 5497 5496 5496 5496 5496 5495 5495 5495 5495 5495 5495 5495 5495 5495 5495 5495 5495 5495 5495 5495 5495 5495 5495 5495 5495 5494 5494 5493 5492 5491 5490 5489 5488 5486 5485 5483
5487 5487 5487 5488 5489 5489 5490 5489 5489 5489 5488 5488 5488 5488 5488 5487 5487 5487 5487 5486 5486 5486 5486 5486 5486 5487 5487 5487 5487 5486 5486 5486 5486 5486 5485 5484 5483 5482 5481 5480 5479 5477 5476 5475